User: anonymous
Location: Lawrence Hall of Science
(37.8785°N, 122.2415°W)
Time: 20:18:55
(UTC-07:00)
Language:

ARGOS - Orbit

View from above orbital plane
View from above orbital plane
View from above satellite
View from above satellite

Ground track
Ground track

The orbit data is extracted from the following two-line orbital elements,

1 25634U 99008A   14211.16407709 -.00000001  00000-0  20446-4 0  2174
2 25634 098.7573 278.1854 0009950 006.1508 046.6349 14.19162963799109
Epoch (UTC): 30 July 2014 03:56:16
Eccentricity: 0.0009950
inclination: 98.7573°
perigee height: 821 km
apogee height: 835 km
right ascension of ascending node: 278.1854°
argument of perigee: 6.1508°
revolutions per day: 14.19162963
mean anomaly at epoch: 46.6349°
orbit number at epoch: 79910

The dashed part of the orbit path shows where the satellite is in the earth's shadow,  

DLR